Dewpoint
46 46 44 44 44 43 42 41 39 38 39 42 41 41 41 40 39 35 42 45 41 40 40 41 42 43 43 43 42 42 43 43 44 44 44 44 45 45
45 45 45 44 44 45 45 42 41 38 37 41 41 41 39 35 35 29 42 44 39 38 40 39 37 38 39 41 40 41 42 42 42 41 41 41 41 42
45 45 44 44 44 45 45 43 41 40 38 40 41 40 38 33 28 26 39 38 34 38 38 36 36 39 40 41 40 41 40 40 39 39 39 40 40 40
45 45 44 43 44 44 44 43 42 41 40 39 40 38 37 33 26 26 34 27 28 36 36 34 34 35 39 41 41 40 38 36 37 37 38 38 39 39
44 45 44 44 44 44 44 43 42 39 40 39 39 39 37 32 26 28 31 24 21 33 34 33 32 33 37 40 39 37 35 35 36 36 36 37 37 38
45 45 45 45 44 44 44 43 42 40 40 40 39 37 35 34 27 28 32 28 26 19 26 29 28 31 31 35 38 35 35 34 35 35 35 35 36 36
45 45 46 45 44 45 44 44 43 42 40 39 37 35 35 30 26 25 27 29 30 26 24 24 24 25 26 30 33 35 34 33 34 34 35 35 35 35
43 44 44 44 45 46 45 45 43 42 41 39 38 35 34 30 26 26 24 24 24 29 25 23 26 24 25 27 32 33 32 32 32 33 34 34 34 34
42 43 43 43 44 44 45 45 44 44 43 40 38 36 33 30 29 26 26 25 21 28 27 21 25 22 25 22 32 30 30 30 31 32 32 33 33 33
42 42 42 42 43 44 44 43 42 42 41 39 40 37 33 30 28 26 26 26 27 26 28 25 25 22 24 26 31 29 28 29 30 30 31 32 32 33
42 42 43 42 43 45 43 42 41 41 41 39 38 37 35 35 32 30 27 26 22 23 29 26 26 25 25 24 26 28 28 28 29 30 30 31 31 32
41 41 43 41 43 44 42 41 39 39 36 33 32 33 33 32 33 28 28 30 28 26 28 28 28 26 27 26 26 26 24 24 27 27 28 29 30 27
40 39 41 43 43 44 43 39 39 37 34 31 31 31 32 32 32 29 28 32 32 28 29 30 31 28 28 26 26 26 25 24 24 24 24 25 27 27
40 40 41 42 43 43 41 40 40 36 32 31 32 32 33 35 35 31 29 29 28 29 30 30 34 30 29 26 23 25 25 26 26 25 25 26 27 27
40 40 40 42 42 43 41 40 38 34 32 32 32 32 34 36 33 32 32 31 31 30 30 33 33 32 31 29 26 25 26 27 27 28 29 27 25 25
40 40 40 41 41 41 40 38 37 34 33 32 31 32 33 32 31 32 31 31 31 30 29 32 33 33 30 28 28 27 27 28 28 27 28 28 27 26
38 38 37 39 39 40 39 37 37 34 33 32 32 31 30 30 30 33 33 31 30 29 30 30 31 31 31 32 28 28 27 29 30 30 28 28 27 25
37 36 37 38 38 38 38 36 35 34 33 33 33 32 31 30 31 32 33 31 30 30 30 31 30 28 28 28 30 29 28 29 29 28 29 27 27 26
37 37 37 37 37 36 36 36 34 34 34 34 34 33 32 32 31 31 31 30 29 30 31 32 30 28 26 24 24 29 28 28 28 27 27 27 27 26
37 36 36 36 36 36 36 36 35 34 34 34 34 34 33 33 32 32 31 30 29 30 30 30 29 29 27 26 25 26 27 28 26 26 26 27 27 27
33 34 35 35 36 36 36 36 35 35 35 34 34 33 33 33 32 32 32 31 30 30 29 28 29 30 31 27 24 23 25 26 26 26 26 25 24 23
34 34 34 35 36 36 36 35 34 34 33 33 33 33 33 33 33 32 32 31 31 31 29 31 30 29 27 25 24 24 23 24 24 25 25 25 25 21
33 33 34 34 35 35 34 34 33 33 33 33 33 33 33 32 33 33 32 31 31 31 31 29 28 27 26 25 24 22 22 22 23 24 25 25 25 26
Lifted_Index
12 13 13 13 13 13 13 13 13 12 13 14 14 14 14 15 16 17 17 18 19 19 19 19 19 19 18 18 18 18 17 16 16 16 16 16 16 15
12 12 13 13 13 13 13 13 13 13 13 14 14 14 14 15 16 17 18 18 19 20 20 20 20 19 19 19 18 18 17 17 17 17 17 17 17 17
12 12 12 12 12 12 13 13 13 13 13 14 14 14 14 15 16 17 18 19 20 20 20 20 21 20 19 19 18 18 18 18 18 18 18 18 18 18
11 11 11 12 12 12 13 13 13 13 14 14 14 14 14 15 16 17 19 20 21 21 21 21 21 20 19 18 18 19 20 20 20 20 19 19 19 19
11 11 11 11 11 12 12 13 13 13 14 14 14 14 14 15 16 17 19 20 21 21 21 21 21 21 20 19 19 20 21 21 20 20 20 20 20 20
10 11 11 11 11 11 12 12 13 13 14 14 14 14 14 15 15 16 18 19 20 21 21 21 21 21 21 20 20 20 21 21 21 20 20 20 20 20
9 10 11 11 11 12 12 12 13 13 14 14 13 13 14 14 15 16 17 18 19 20 20 20 20 21 21 21 21 21 21 21 21 20 20 20 20 20
9 10 12 12 12 12 12 12 13 13 14 14 13 13 14 14 15 16 16 17 17 19 19 19 19 20 20 20 21 21 21 21 21 20 20 20 20 20
9 11 13 13 13 13 12 13 13 13 13 13 13 13 14 14 15 16 17 17 17 18 18 18 18 19 19 20 21 21 21 21 21 21 20 20 20 20
9 10 12 13 13 13 13 13 13 13 13 13 13 13 14 15 16 17 17 17 17 18 18 18 18 18 19 20 20 21 21 21 21 21 20 20 20 20
8 10 12 13 13 13 13 13 13 13 13 13 13 13 14 15 17 17 17 17 17 17 18 17 18 18 18 19 19 20 20 20 20 20 20 20 20 20
7 9 11 12 13 13 12 12 12 13 13 13 13 14 15 16 18 18 18 17 17 17 17 18 18 17 17 17 18 18 19 19 19 20 20 20 20 20
7 8 9 11 12 12 12 12 13 13 13 13 14 14 15 17 18 18 18 18 17 17 18 18 18 17 16 16 16 16 17 18 18 19 19 19 19 19
6 7 9 10 11 12 12 12 13 13 13 13 14 14 16 17 18 18 19 19 18 18 19 18 18 17 16 14 14 15 16 16 17 18 18 18 18 18
7 8 9 10 11 12 12 12 13 13 13 13 14 15 16 17 18 18 18 18 18 18 18 18 17 17 15 14 14 14 14 15 16 17 17 17 17 17
8 9 10 11 11 12 12 12 12 13 13 13 14 15 16 17 17 17 18 17 17 17 17 17 17 17 16 15 14 14 14 15 16 17 16 16 16 16
9 9 10 10 11 11 11 12 12 12 13 14 15 16 17 17 17 16 16 16 15 15 16 16 17 17 16 15 15 15 15 15 16 16 16 15 15 15
9 9 10 10 11 11 11 12 12 12 13 14 15 16 16 16 15 15 15 14 14 15 15 16 16 16 16 15 15 14 14 15 15 15 15 14 14 13
9 9 10 11 11 11 12 12 12 13 13 14 16 16 15 14 13 13 13 13 14 15 15 15 15 15 14 14 14 14 14 14 14 14 14 13 13 12
10 10 11 11 12 12 12 12 12 12 13 14 15 15 14 12 12 13 13 13 14 14 14 14 14 14 14 13 13 13 13 13 13 13 12 12 12 12
10 11 11 11 12 12 12 12 12 12 13 14 14 13 12 12 12 13 13 13 13 13 13 13 13 13 13 13 12 12 13 13 13 12 12 12 11 11
11 11 11 11 12 11 12 12 12 12 13 13 13 12 12 12 12 13 12 12 12 13 13 13 13 13 13 12 12 12 12 12 12 12 11 11 11 10
11 11 11 12 12 12 12 12 12 12 12 12 12 12 12 12 12 12 12 12 12 12 12 12 12 12 12 12 12 12 11 11 11 11 11 11 11 10